Location: Carrières
(48.9495°N, 2.0407°E)
Time: 01:00:55
(UTC+00:00)

Cosmos 1607 - Pass Details

Date: 28 January 2023
Orbit: 921 x 981 km, 65.0° (Epoch: 21 March)

Event Time Altitude Azimuth Distance (km) Brightness Sun altitude
Rises 18:03:04 0° 201° (SSW) 3,550 7.4 -13.3°
Reaches altitude 10° 18:05:36 10° 197° (SSW) 2,613 6.6 -13.7°
Maximum altitude 18:11:31 56° 121° (ESE) 1,096 4.0 -14.6°
Enters shadow 18:16:10 17° 48° (NE) 2,172 5.3 -15.4°
